Regional Weather Roundup
Issued by NWS

Home | Current Version | Previous Version | Text Only | Print | Product List | Glossary Off
Versions: 1 2 3 4 5 6 7 8 9 10 11 12 13 14 15 16 17 18 19 20 21 22 23 24 25 26 27 28 29 30 31 32 33 34 35 36 37 38 39 40 41 42 43 44 45 46 47 48 49 50

000
ASUS43 KMKX 010211
RWRWI

WISCONSIN REGIONAL WEATHER ROUNDUP
NATIONAL WEATHER SERVICE MILWAUKEE/SULLIVAN WI
900 PM CDT SUN AUG 31 2014

NOTE: "FAIR" INDICATES FEW OR NO CLOUDS BELOW 12,000 FEET WITH NO
SIGNIFICANT WEATHER AND/OR OBSTRUCTIONS TO VISIBILITY.

WIZ001-002-006>008-014>016-023>028-010300-
NORTHWEST WISCONSIN

CITY           SKY/WX    TMP DP  RH WIND       PRES   REMARKS
SUPERIOR ARPT  MOCLDY    62  61  98 NE6       29.63R
ASHLAND        MOCLDY    74  67  78 S6        29.65R
HAYWARD        CLOUDY    74  69  85 SW6       29.66R
SIREN          MOCLDY    74  65  74 SW6       29.63F
RICE LAKE      TSTM      66  64  93 SW13G18   29.68R
LADYSMITH      MOCLDY    75  68  77 SE12G18   29.70S
EAU CLAIRE     CLOUDY    78  68  71 S18G26    29.66R HX  80
MENOMONIE      CLOUDY    79  68  69 S22G30    29.66R HX  81
NEW RICHMOND   MOCLDY    76  64  65 SW16G25   29.66R
OSCEOLA        MOCLDY    76  69  78 S6        29.67R
$$

WIZ003>005-009-010-017-018-010300-
NORTH CENTRAL WISCONSIN

CITY           SKY/WX    TMP DP  RH WIND       PRES   REMARKS
WOODRUFF       CLEAR     72  68  86 S12G20    29.74F
RHINELANDER    CLEAR     67  65  93 VRB7      29.78F
EAGLE RIVER    MOCLDY    66  64  94 S10G16    29.77F
LAND O LAKES   CLOUDY    67  64  90 S9        29.77F
PHILLIPS       MOCLDY    72  66  83 S12G21    29.71F
TOMAHAWK       PTCLDY    69  64  86 SE6       29.76F
MEDFORD        CLOUDY    71  66  84 SE10G16   29.74F
MERRILL        MOCLDY    70  67  88 SE7       29.76F
$$

WIZ029-030-035-036-043>047-010300-
CENTRAL WISCONSIN

CITY           SKY/WX    TMP DP  RH WIND       PRES   REMARKS
WAUSAU         MOCLDY    72  67  84 SE10      29.75F
MOSINEE        MOCLDY    72  68  88 SE10      29.78
MARSHFIELD     MOCLDY    74  67  78 S8        29.74F
STEVENS POINT  PTCLDY    71  66  84 SE7       29.78F
WAUPACA        PTCLDY    73  70  92 E5        29.79F
WAUTOMA        MOCLDY    73  68  84 SE5       29.78F
WISC RAPIDS    MOCLDY    74  67  78 SE7       29.77F
CAMP DOUGLAS   MOCLDY    74  71  92 SE7       29.76F
$$

WIZ011>013-019>022-031-037>040-048>050-010300-
NORTHEAST WISCONSIN

CITY           SKY/WX    TMP DP  RH WIND       PRES   REMARKS
ANTIGO         CLOUDY    67  66  97 SE15      29.81F FOG
STURGEON BAY   CLOUDY    64  61  88 SE9       29.85F
GREEN BAY      MOCLDY    67  65  93 SE9       29.82F
MANITOWOC      LGT RAIN  66  65  96 S10       29.85F VSB 1/2
APPLETON       PTCLDY    70  68  94 SE8       29.82F
CLINTONVILLE   MOCLDY    68  64  88 SE7       29.80F FOG
OSHKOSH        CLEAR     70  68  93 S5        29.81F
$$

WIZ032>034-041-042-053>061-010300-
SOUTHWEST WISCONSIN

CITY           SKY/WX    TMP DP  RH WIND       PRES   REMARKS
LA CROSSE      CLOUDY    70  66  87 SE6       29.71F
SPARTA         CLOUDY    73  63  72 S5        29.75R
VIROQUA        FAIR      74  67  78 SE8       29.76S
BOSCOBEL       MOCLDY    78  67  68 VRB3      29.75F HX  80
PRAIRIE DU CHI PTCLDY    78  67  67 SE9       29.74S HX  80
PLATTEVILLE    FAIR      73  69  86 CALM      29.81R
$$

WIZ056-057-062-063-064-067-068-010300-
SOUTH CENTRAL WISCONSIN

CITY           SKY/WX    TMP DP  RH WIND       PRES   REMARKS
BARABOO/DELLS  PTCLDY    75  65  69 S13G18    29.77F
LONE ROCK      PTCLDY    78  68  71 E5        29.78S HX  80
WATERTOWN      CLEAR     72  69  89 SE5       29.81F
MADISON        PTCLDY    78  67  68 S13       29.80F HX  80
MIDDLETON      FAIR      77  66  70 SE8       29.80F
MONROE         PTCLDY    73  68  83 SE9       29.81F
JANESVILLE     CLEAR     75  66  73 SE10      29.81F
$$

WIZ051-052-058>065-066-070>072-010300-
SOUTHEAST WISCONSIN

CITY           SKY/WX    TMP DP  RH WIND       PRES   REMARKS
MILWAUKEE      PTCLDY    73  66  78 S8        29.85F
WAUKESHA       CLEAR     72  64  78 S9        29.85F
MILWAUKEE/TIMM CLEAR     75  64  69 S5        29.85F
RACINE         CLEAR     72  68  87 S3        29.87F FOG
BURLINGTON     CLEAR     70  65  84 SE8       29.83F
KENOSHA        CLEAR     74  65  73 SE5       29.86F
FOND DU LAC    CLEAR     70  67  90 S10       29.81F
SHEBOYGAN      FOG       67  66  97 SE6       29.85F VSB 1/2
WEST BEND      PTCLDY    66  64  94 CALM      29.84F FOG
JUNEAU         CLEAR     72  66  81 SE9       29.83F
$$

LSZ147-162-010300-
LAKE SUPERIOR

STATION/POSITION TIME  TEMP    WIND        PRES    WAVE
                       AIR SEA DIR/SP/G            HT/PER
                 (UTC) (F)     (DEG/KT/KT) (MB)    (FT/S)
W MID LAKE BUOY  0150   63 58  130/ 14/ 17 1003.7F   2/ 4
DEVILS ISLAND    0200   69     250/  4/  5 1003.2R
PORT WING        0100   63      10/  8     1004.4R
SAXON HARBOR     0000   76     190/  7/ 13 1004.1F
$$

LMZ867-665-643>646-010300-
LAKE MICHIGAN

STATION/POSITION TIME  TEMP    WIND        PRES    WAVE
                       AIR SEA DIR/SP/G            HT/PER
                 (UTC) (F)     (DEG/KT/KT) (MB)    (FT/S)
N MID LAKE BUOY  0150   65 66  150/ 10/ 10 1010.8F   1
NORTHPORT PIER   0100   65     150/  9/ 13 1011.2F
KEWAUNEE LAKESHO 0100   62     180/  6/  9 1010.4F
SHEBOYGAN LAKESH 0200   65 51  160/  9/  9 1010.6F
ATWATER BUOY     0100   71     160/ 12/ 14 1012.0F
MILWAUKEE LAKESH 0100   69     160/ 11/ 12   N/A
S MID LAKE BUOY  0150   72 71  130/ 10/ 12 1011.4F   1
KENOSHA   LAKESH 0200   71     160/  8/  9 1010.5F
$$

TC  - TEMPERATURE IN CELSIUS
VSB - VISIBILITY IN STATUTE MILES
WCI - WIND CHILL INDEX
HX  - HEAT INDEX




USA.gov is the U.S. government's official web portal to all federal, state and local government web resources and services.